Regional Weather Roundup
Issued by NWS Pendleton, OR

Home | Current Version | Previous Version | Text Only | Print | Product List | Glossary On
Versions: 1 2 3 4 5 6 7 8 9 10 11 12 13 14 15 16 17 18 19 20 21 22 23 24 25 26 27 28 29 30 31 32 33 34 35 36 37 38 39 40 41 42 43 44 45 46 47 48 49 50
000
ASUS46 KPDT 022325
RWRPDT
PENDLETON REGIONAL WEATHER ROUNDUP
NATIONAL WEATHER SERVICE PENDLETON OREGON
300 PM PST MON MAR 2 2015

NOTE: FAIR INDICATES FEW OR NO CLOUDS BELOW 12,000 FEET WITH NO
SIGNIFICANT WEATHER AND/OR OBSTRUCTIONS TO VISIBILITY.

# INDICATES UNOFFICIAL STATION AND DATA

WAZ520-030010-
EAST SLOPES OF WASHINGTON CASCADES

CITY            SKY/WX      TMP DP  RH  WIND    PRES   REMARKS
#BUMPING DAM    N/A         38  N/A N/A N2      N/A
#CLE ELUM HS    N/A         45  28  51  SW2     29.86S
#CLE ELUM LAKE  N/A         42  29  60  W1      29.93S
#CLIFFDEL 2NW   N/A         43  26  51  NW1     N/A
#GLENWOOD       N/A         46  32  58  NE3     29.96S
#MANASTASH CYN  N/A         42  26  53  N2      29.88R
#NELSON         N/A         45  30  55  CALM    29.96S
#NELSON 3SW     N/A         41  29  62  CALM    30.17R
#NILE           N/A         43  31  62  E1      29.21S
#RONALD 2NW     N/A         43  30  60  SW1     29.76S
#SNOWDEN        N/A         42  13  30  CALM    N/A
#TEANAWAY 4NE   N/A         45  32  60  S3      N/A
#TROUT LAKE 1NE N/A         45  30  55  E1      29.95F
$$

WAZ521-030010-
SIMCOE HIGHLANDS

CITY            SKY/WX      TMP DP  RH  WIND    PRES   REMARKS
#BICKLETON HS   N/A         36  20  52  N7      N/A
#CENTERVILLE 4W N/A         46  32  58  SE6     29.68S
#CENTERVILLE 1SWN/A         44  28  53  E6      29.93S
#GOLDENDALE     N/A         44  29  55  E5      N/A
#GOLDENDALE 1NE N/A         45  21  38  N5      N/A
#GOODNOE HILLS  N/A         46  28  49  SW3     N/A
#LYLE 6NE       N/A         45  26  47  CALM    29.93S
$$

WAZ026-030010-
KITTITAS VALLEY

CITY            SKY/WX      TMP DP  RH  WIND    PRES   REMARKS
ELLENSBURG AP   CLOUDY      48  28  46  CALM    29.92S
#ELLENSBURG CWU N/A         47  28  47  CALM    29.90S
#ELLENSBURG 3NE N/A         44  30  58  CALM    29.92F
#ELLENSBURG 1E  N/A         47  27  45  CALM    N/A
#KITTITAS 4N    N/A         47  31  53  W1      28.24S
#KITTITAS 3S    N/A         46  29  51  CALM    29.94F
#THORP 6N       N/A         43  30  60  N7      29.97S
$$

WAZ027-030010-
YAKIMA VALLEY

CITY            SKY/WX      TMP DP  RH  WIND    PRES   REMARKS
SUNNYSIDE AP    CLOUDY      48  24  39  NW6     29.95S
YAKIMA AIRPORT  MOCLDY      50  26  39  VRB6    29.95S
YAKIMA-VAGABOND MOCLDY      46  25  43  W5      29.93F
#DONALD 2NE     N/A         51  15  23  E3      28.79F
#MABTON         N/A         49  28  44  NW3     29.95F
#NACHES 2SW     N/A         47  32  56  W1      29.93F
#OUTLOOK DOT    N/A         N/A N/A N/A CALM    N/A
#SELAH 8E       N/A         44  24  45  W5      N/A
#TERRACE HTS    N/A         49  29  46  CALM    29.93F
#TOPPENISH      N/A         49  26  40  CALM    29.88F
#WAPATO 4NE     N/A         51  15  23  E3      28.79F
#WEST VALLEY    N/A         47  28  47  CALM    29.96S
#W YAKIMA       N/A         47  29  49  W1      29.97S
#WHITE SWAN 5E  N/A         48  30  49  SW2     29.98S
#WILEY CITY 3W  N/A         45  21  38  CALM    29.97S
$$

WAZ028-030010-
LOWER COLUMBIA BASIN...WASHINGTON

CITY            SKY/WX      TMP DP  RH  WIND    PRES   REMARKS
HANFORD         MOCLDY      51  22  32  N8      29.94F
PASCO           CLOUDY      50  26  39  NW9     29.96F
PROSSER AWOS    N/A         50  25  37  E3      29.98S
RICHLAND AWOS   CLOUDY      52  27  38  N5      29.96F
#BASIN CITY 5SW N/A         50  28  42  NW5     29.93F
#BENTON CITY    N/A         48  27  44  NE6     29.87F
#CONNELL 5N     N/A         47  28  47  CALM    29.94F
#CONNELL 5NW    N/A         46  29  51  CALM    29.91F
#ELTOPIA        N/A         50  29  44  N5      29.92F
#ELTOPIA 6NW    N/A         49  29  46  N2      28.90S
#KAHLOTUS       N/A         44  27  51  SE6     29.95F
#KENNEWICK 3S   N/A         47  27  45  CALM    29.98S
#PASCO-BROADMOORN/A         51  24  34  NE3     29.86F
#PATERSON       N/A         48  31  51  NW6     29.95S
#PROSSER        N/A         49  23  36  N1      29.96F
#SAGEMOOR 2W    N/A         49  30  48  N3      29.80F
#TOUCHET 2S     N/A         48  31  51  W7      29.95S
#WEST PASCO     N/A         50  27  41  NW5     29.95S
$$

WAZ029-030010-
FOOTHILLS OF THE BLUES...WASHINGTON

CITY            SKY/WX      TMP DP  RH  WIND    PRES   REMARKS
WALLA WALLA AP  CLOUDY      44  24  45  CALM    29.93S
#DAYTON SCHOOL  N/A         42  19  39  S5      29.92S
#LOWDEN 2SE     N/A         47  28  47  E5      29.91S
#PLEASANT VIEW 1N/A         41  30  65  CALM    29.99F
#PRESCOTT       N/A         44  34  68  NW7     29.96S
#SUDBURY        N/A         47  N/A N/A CALM    N/A
#WHITMAN COLLEGEN/A         44  26  49  SE1     30.01R
#WAITSBURG 5S   N/A         41  26  55  SW2     30.05S
#WAITSBURG 8N   N/A         40  13  33  S3      29.76S
#WALLA WALLA 5E N/A         43  26  51  S1      N/A
#WALLA WALLA U  N/A         46  28  49  CALM    29.96S
#WHITMAN MISSIONN/A         47  29  49  CALM    29.97F
$$

WAZ030-030010-
BLUE MOUNTAINS...WASHINGTON

CITY            SKY/WX      TMP DP  RH  WIND    PRES   REMARKS
#DIXIE 5SE      N/A         34  21  58  W6      29.81R
#SKI BLUEWOOD   N/A         27  23  85  N8      29.79S
$$

ORZ009-041-WAZ024-030010-
COLUMBIA RIVER GORGE

CITY            SKY/WX      TMP DP  RH  WIND    PRES   REMARKS
THE DALLES AP   CLOUDY      53  27  36  E8      29.95S
#ARLINGTON AIRPON/A         47  32  56  N10     29.96F
#ARLINGTON HS   N/A         50  31  48  W7      29.88R
#CELILO DOT     N/A         53  27  36  NE3     N/A
#MOSIER 1S      N/A         51  18  27  CALM    29.91S
#MURDOCK        N/A         54  31  41  CALM    29.97S
#RUFUS DOT      N/A         50  25  37  CALM    N/A

$$

ORZ510-030010-
NORTH CENTRAL OREGON

CITY            SKY/WX      TMP DP  RH  WIND    PRES   REMARKS
#CHENOWITH 1W   N/A         47  24  40  E2      N/A
#COW CYN RST AREN/A         41  19  41  N7      N/A
#DUFUR 9E       N/A         42  26  53  N8      30.00S
#GRASS VALLEY 1SN/A         43  25  49  NE7     29.99R
#KENT DOT       N/A         44  15  30  NE8     N/A
#MAUPIN SCHOOL  N/A         50  21  32  E5      29.95S
#MORO SCHOOL    N/A         45  30  55  NE3     29.94R
#SHANIKO 5WSW   N/A         40  13  33  N10     N/A
#SHANIKO 4NW    N/A         38  19  46  N12     29.87S WCI 30
#TYGH VALLEY 2NEN/A         49  24  37  E7      29.95S
#WAPANITIA AIRPON/A         47  24  40  NE3     29.97S
#WASCO DOT      N/A         48  24  39  E3      N/A
#WASCO 5NE      N/A         46  28  49  CALM    29.98S
$$

ORZ511-030010-
CENTRAL OREGON

CITY            SKY/WX      TMP DP  RH  WIND    PRES   REMARKS
BEND AIRPORT    PTCLDY      41  23  48  N9      29.85R
MADRAS AIRPORT  CLOUDY      45  21  38  N8      29.91S
PRINEVILLE AP   PTCLDY      45  23  41  N16     29.85R WCI 38
REDMOND AIRPORT CLOUDY      45  24  43  N14     29.85S WCI 39
#BEND 6E        N/A         43  21  41  CALM    29.88S
#BEND 1SW       N/A         40  26  57  NE1     N/A
#BEND-AWBREY    N/A         42  27  55  N3      29.93R
#BEND-KIM LN    N/A         43  25  49  N3      29.82R
#CROOKED RVR RANN/A         44  25  47  E7      29.92S
#CULVER         N/A         44  23  43  N7      29.85S
#LAKE BILLY CHINN/A         44  -11  9  N7      29.99S
#POWELL BUTTE 3EN/A         46  25  43  NW12    N/A    WCI 40
#POWELL BUTTE   N/A         46  26  45  NE10    29.50R
#PRINEVILLE 3N  N/A         45  25  45  NW13    29.89R WCI 39
#WARM SPRINGS   N/A         49  24  37  N7      29.88S

$$


ORZ509-030010-
EAST SLOPES OF OREGON CASCADES

CITY            SKY/WX      TMP DP  RH  WIND    PRES   REMARKS
#BLUE BOX PASS  N/A         35  -14 11  CALM    N/A
#CAMP SHERMAN   N/A         46  24  42  VRB1    29.91R
#LA PINE 4NW    N/A         41  22  46  CALM    29.92R
#MT BACHELOR-MIDN/A         26  19  74  SW3     N/A
#SISTERS AIRPOR N/A         42  29  60  NE7     30.17S
#SISTERS ODOT   N/A         43  N/A N/A NW3     N/A
#SISTERS 3N     N/A         43  20  39  N10     29.90S
#SUNRIVER       N/A         40  24  52  NW3     29.81R
#TUMALO 3W      N/A         41  23  48  N8      29.79S
#WANOGA BUTTE D N/A         31  19  61  E10     N/A

$$

ORZ044-030010-
LOWER COLUMBIA BASIN...OREGON

CITY            SKY/WX      TMP DP  RH  WIND    PRES   REMARKS
HERMISTON       CLOUDY      49  27  42  N12     29.94S WCI 44
#BOARDMAN 8SW   N/A         49  32  52  NW6     29.97R
#ECHO 8SW       N/A         48  24  39  CALM    29.92S
#IONE SCHOOL    N/A         48  26  42  N3      29.93S
#IRRIGON 4NW    N/A         50  31  48  N3      N/A
#UMATILLA SCHOOLN/A         47  34  60  N8      29.97S
#UMATILLA       N/A         50  29  44  N9      29.93R
$$

ORZ507-030010-
NORTHERN FOOTHILLS OF THE BLUES

CITY            SKY/WX      TMP DP  RH  WIND    PRES   REMARKS
PENDLETON AIRPT CLOUDY      45  22  40  N13     29.91S WCI 39
#ADAMS 3WNW     N/A         43  26  51  N7      29.96F
#ATHENA         N/A         42  24  48  NE2     29.98S
#CAYUSE         N/A         43  23  45  N8      29.95S
#HELIX SCHOOL   N/A         43  26  51  N8      29.96S
#HELIX 3N       N/A         42  26  53  N10     29.88S
#HOLDMAN 5SE    N/A         46  31  56  S7      29.93S
#HOLDMAN 6E     N/A         43  28  55  SE7     29.77S
#M-F FERNDALE   N/A         47  26  44  CALM    29.93S
#M-F GROVE ELEM N/A         44  23  43  CALM    29.92S
#M-FREEWATER 5SEN/A         42  27  55  CALM    29.93S
#PENDLETON DNTN N/A         49  23  36  NE2     29.93S
#PDT AQUATIC CTRN/A         48  25  40  N5      29.92S
#PENDLETON 5NE  N/A         44  24  45  N1      29.88S
#PDT SUNRIDGE   N/A         46  22  38  CALM    29.93S
#PENDLETON 7NW  N/A         47  28  47  CALM    27.41S
#PILOT ROCK     N/A         44  19  36  CALM    29.94R
#TUTUILLA       N/A         46  22  38  N3      29.96R
#UMAPINE 2E     N/A         46  28  49  CALM    29.91S
#WESTON SCHOOL  N/A         40  20  44  E1      29.91R

$$

ORZ508-030010-
SOUTHERN FOOTHILLS OF THE BLUES

CITY            SKY/WX      TMP DP  RH  WIND    PRES   REMARKS
LEXINGTON       MOCLDY      46  25  43  N9      29.94F
#AJAX           N/A         42  16  34  N9      29.86S
#CONDON SCHOOL  N/A         40  22  48  CALM    29.87R
#CONDON 5W      N/A         37  17  44  N7      29.86S
#FOSSIL SCHOOL  N/A         41  20  43  NE10    29.88R
#HEPPNER EOC    N/A         43  21  41  NE5     29.92S
#HEPPNER 4NE    N/A         39  20  46  E5      29.96R
#LEXINGTON 2SE  N/A         47  21  35  NE3     29.90S
#MIKKALO        N/A         49  26  40  NE3     29.93S
#OLEX 4N        N/A         47  32  56  NE7     29.94S
#RUGGS 5NE      N/A         41  19  41  NE8     30.07R
#RUGGS 2SW      N/A         39  20  46  N6      29.98S

$$

ORZ502-503-030010-
BLUE MOUNTAINS

CITY            SKY/WX      TMP DP  RH  WIND    PRES   REMARKS
MEACHAM         CLOUDY      34  22  61  VRB3    29.85R
#BATTLE MTN DOT N/A         30  24  78  N7      N/A
#HEPPNER 15SE   N/A         32  20  61  CALM    29.76R
#LADD CYN SMT   N/A         39  16  39  NW14    N/A    WCI 31
#LADD CREEK ODOTN/A         43  22  43  CALM    N/A
#LONG CREEK HS  N/A         38  28  67  CALM    29.78R
#N POWDER DOT   N/A         41  21  44  N17G24  N/A    WCI 33
#PIKES PEAK     N/A         31  21  66  SW7     27.99S
#TOLLGATE       N/A         26  23  88  W1      29.79R
#TROY SCHOOL    N/A         45  31  58  W1      29.75S
#UKIAH          N/A         35  24  64  NW13    30.02R WCI 26
#WESTON 4E      N/A         35  25  66  CALM    29.89S
$$

ORZ505-030010-
JOHN DAY BASIN

CITY            SKY/WX      TMP DP  RH  WIND    PRES   REMARKS
JOHN DAY        MOCLDY      41  25  53  N15     29.81R WCI 33
#JOHN DAY KJDY  N/A         47  44  89  NW10    29.78R
#MITCHELL       N/A         44  28  53  N5      30.00S
#MONUMENT HS    N/A         46  20  35  N15     29.88R WCI 40
#MT. VERNON 5SE N/A         40  25  55  SW5     29.75S
#SPRAY SCHOOL   N/A         47  N/A N/A E6      N/A
#WINLOCK        N/A         40  20  44  NW5     29.96R
$$

ORZ506-030010-
OCHOCO AND JOHN DAY HIGHLANDS

CITY            SKY/WX      TMP DP  RH  WIND    PRES   REMARKS
#BUCK CREEK DOT N/A         43  43  100 N15     N/A    WCI 36
#HORSE RIDGE DO N/A         40  21  46  NW13    N/A    WCI 32
#PAULINA SCHOOL N/A         47  42  83  N5      29.81R
#PINE MTN OBS   N/A         30  20  66  N7      N/A
#SENECA         N/A         37  N/A N/A N6      N/A
#SENECA 9NW     N/A         38  25  59  CALM    29.94R
$$

ORZ049-030010-
GRANDE RONDE VALLEY

CITY            SKY/WX      TMP DP  RH  WIND    PRES   REMARKS
LA GRANDE       MOCLDY      41  19  41  NW18    29.84R WCI 32
#COVE           N/A         41  30  65  N2      29.85R
#COVE SCHOOL    N/A         42  27  55  E3      29.82R
#ELGIN 3N       N/A         39  20  46  W3      29.84R
#ELGIN 1E       N/A         40  26  57  W3      N/A
#IMBLER SCHOOL  N/A         38  26  62  N8      29.83R
#ISLAND CITY 4N N/A         55  41  59  CALM    29.96S
#LADD CYN DOT   N/A         43  21  41  NW12    N/A    WCI 37
#LA GRANDE ELEM N/A         39  26  59  NW9     29.89R
#UNION 1S       N/A         43  26  51  NW8     29.80R
$$

ORZ050-030010-
WALLOWA COUNTY

CITY            SKY/WX      TMP DP  RH  WIND    PRES   REMARKS
JOSEPH AIRPORT  CLOUDY      36  23  59  N5      29.80R
#ENTERPRISE HS  N/A         38  26  62  N7      29.82R
#IMNAHA SCHOOL  N/A         47  26  44  N6      29.81S
#IMNAHA 10S     N/A         44  25  47  NE3     29.79S
#JOSEPH 3N      N/A         36  25  64  NW15    29.83S WCI 27
#JOSEPH 3W      N/A         32  20  61  N3      29.65S
#LOSTINE        N/A         38  26  62  NW5     29.71R
#MT HOWARD 8000 N/A         18  15  88  N6      29.65F
#PROMISE 1S     N/A         33  28  82  S1      30.03R
#SHEEP RDG 7000 N/A         19  17  92  CALM    29.90S
#WALLOWA SCHOOL N/A         39  28  64  CALM    30.89R



$$



USA.gov is the U.S. government's official web portal to all federal, state and local government web resources and services.